Location: Clinton NY
(43.0598°N, 75.3602°W)
Time: 17:48:10
(UTC-05:00)

Daily predictions for brighter satellites

Satellite Brightness Start Highest point End
(mag) Time Altitude Azimuth Time Altitude Azimuth Time Altitude Azimuth
Cosmos 1340 2.6 18:10:36 10° N 18:14:24 70° E 18:18:09 10° SSE
Cosmos 407 Rocket 4.3 18:10:34 10° SW 18:15:44 57° WNW 18:21:00 10° NNE
Cosmos 1602 3.9 18:12:25 10° S 18:16:11 50° E 18:20:00 10° NNE
Cosmos 1741 Rocket 4.5 18:13:05 10° S 18:17:54 39° ESE 18:22:45 10° NE
Cosmos 1833 4.2 18:12:57 10° SSW 18:18:39 86° ESE 18:24:20 10° NNE
SL-16 R/B 4.2 18:16:02 10° NW 18:21:07 35° WSW 18:26:10 10° SSW
Resurs 01 Rocket 2.7 18:20:01 10° ESE 18:23:35 25° ENE 18:27:11 10° NNE
Meteor 1-11 Rocket 3.9 18:18:10 10° S 18:23:50 57° E 18:29:39 10° NNE
Cosmos 676 Rocket 4.4 18:18:48 10° SSW 18:23:58 68° WNW 18:29:12 10° NNE
NOAA 12 4.1 18:18:46 10° SSE 18:24:02 68° ENE 18:29:20 10° N
Cosmos 2333 Rocket 3.3 18:20:44 10° N 18:25:30 26° NE 18:30:13 10° ESE
Cosmos 1140 Rocket 3.4 18:21:44 10° SSW 18:26:52 79° ESE 18:32:03 10° NNE
Cosmos 614 Rocket 4.0 18:22:51 10° S 18:27:50 61° ESE 18:32:50 10° NNE
NOSS 8 (E) 4.5 18:27:19 10° SSW 18:30:45 85° SE 18:34:33 10° NE
FENGYUN 3A 4.0 18:26:09 10° SE 18:31:13 42° ENE 18:36:18 10° N
ATLAS CENTAUR R/B 3.4 18:32:56 10° SSE 18:34:51 13° SE 18:36:03 11° ESE
Meteor 1-28 Rocket 3.7 18:31:25 10° N 18:35:12 64° WNW 18:38:59 10° SSW
Cosmos 1570 Rocket 4.0 18:30:31 10° NNW 18:35:44 67° ENE 18:40:57 10° SSE
Cosmos 2181 Rocket 4.0 18:29:32 10° N 18:35:51 83° E 18:42:13 10° S
GPS 2-04 Rocket1 4.3 18:32:39 10° SW 18:36:15 27° S 18:39:42 11° ESE
USA 229 DEB 3.9 18:32:03 10° NNW 18:39:06 60° NE 18:46:15 10° SE
USA 229 3.9 18:32:09 10° NNW 18:39:12 59° NE 18:46:20 10° SE
Cosmos 1633 2.9 18:35:35 10° SSW 18:39:14 73° W 18:42:56 10° N
Genesis I 3.4 18:35:49 10° NW 18:39:46 76° WSW 18:43:40 10° SSE
Cosmos 1238 Rocket 2.3 18:37:07 10° N 18:40:04 74° W 18:43:06 10° S
Okean 1 Rocket 3.0 18:37:41 10° S 18:42:09 72° E 18:46:38 10° NNE
Cosmos 1709 Rocket 4.2 18:38:11 10° SSW 18:44:22 75° W 18:50:32 10° N
Cosmos 2074 Rocket 4.2 18:39:52 10° SSE 18:45:51 50° E 18:51:54 10° NNE
METEOR-M 4.3 18:40:38 10° S 18:45:58 80° WSW 18:51:21 10° NNW
NOSS 8 (H) 4.4 18:42:42 10° SW 18:46:03 88° SE 18:49:43 10° NE
Cosmos 1025 Rocket 3.2 18:43:32 10° N 18:47:49 49° ENE 18:52:05 10° SSE
SL-08 ROCKET BODY 4.5 18:44:04 10° S 18:50:07 60° E 18:56:12 10° NNE
OTV 4 2.7 18:49:02 10° S 18:50:34 13° SSE 18:51:22 12° SE
Spot 2 Rocket 3.7 18:46:12 10° SE 18:51:02 48° ENE 18:55:54 10° N
Cosmos 2184 Rocket 4.1 18:46:08 10° SSE 18:52:12 54° E 18:58:16 10° NNE
Meteor 1-5 Rocket 4.5 18:46:50 10° SSE 18:52:35 52° E 18:58:15 10° NNE
USA 215 4.4 18:47:34 10° NE 18:53:23 36° NNW 18:59:12 10° W
FengYun 1-2 T 4.2 18:50:43 10° SSE 18:56:09 68° ENE 19:01:38 10° N
USA 186 3.9 19:00:27 12° NNE 19:00:27 12° NNE 19:00:44 10° NNE
BREEZE-M DEB (TANK) 2.5 19:00:54 10° SW 19:04:40 47° SSE 19:05:21 36° ESE
Cosmos 2208 Rocket 4.3 19:01:19 10° NNW 19:06:46 73° WSW 19:12:07 10° S
Cosmos 1850 Rocket 4.3 19:01:32 10° SSW 19:06:50 74° WNW 19:12:12 10° NNE
Envisat 4.1 19:06:50 23° E 19:07:43 24° ENE 19:11:43 10° NNE
Nadezhda 3 Rocket 4.4 19:03:11 10° N 19:08:56 39° ENE 19:14:41 10° SE
SJ-6B 3.7 19:05:35 10° S 19:09:28 52° W 19:13:17 10° NNW
NOSS 3-1 (C) 4.3 19:02:24 10° NNW 19:09:33 48° NE 19:14:48 21° ESE
Cosmos 1544 Rocket 4.1 19:05:46 10° SSE 19:09:41 35° E 19:13:37 10° NNE
NOSS 0 Rocket 4.0 19:04:23 10° NNW 19:10:26 55° ENE 19:15:08 17° SE
Cosmos 405 Rocket 3.0 19:06:44 10° N 19:10:40 46° ENE 19:13:11 20° SE
Cosmos 2237 Rocket 2.7 19:06:27 10° NNW 19:11:50 40° ENE 19:14:36 25° ESE
ALOS 2.4 19:08:24 10° S 19:13:04 79° WSW 19:17:46 10° NNW
Cosmos 2333 4.3 19:08:24 10° NNW 19:14:10 80° WSW 19:19:55 10° SSE
HJ-1C 3.7 19:10:56 10° S 19:14:17 68° WSW 19:17:39 10° NNW
Cosmos 2297 Rocket 3.1 19:10:21 10° SSE 19:14:23 25° ESE 19:14:23 25° ESE
COSMOS 2428 3.0 19:10:19 10° NNW 19:15:59 68° WSW 19:21:37 10° SSE
H-2A R/B 2.5 19:12:26 10° SSE 19:16:08 76° ENE 19:19:55 10° N
CZ-2D R/B 3.2 19:14:14 18° SSE 19:16:52 56° ENE 19:20:37 10° N
Okean 1-7 Rocket 4.3 19:14:06 10° NNW 19:18:33 57° W 19:22:55 10° S
Meteor 2-4 Rocket 4.3 19:15:50 10° NNW 19:21:15 58° W 19:26:30 10° S
Cosmos 2154 Rocket 4.2 19:15:40 10° SSE 19:21:42 49° E 19:27:45 10° NNE
Cosmos 2285 Rocket 4.0 19:16:20 10° NNW 19:22:49 89° WSW 19:29:13 10° SSE
Gbstr 26 Del rocket 3.7 19:20:20 10° W 19:23:55 40° NNW 19:25:41 24° NNE
Cosmos 2360 Rocket 4.4 19:19:20 10° NW 19:23:59 27° WSW 19:28:37 10° SSW
Cosmos 2219 Rocket 2.1 19:18:35 10° NNW 19:24:13 81° ENE 19:28:57 15° SSE
Okean 2 3.4 19:24:01 10° N 19:28:13 86° W 19:32:24 10° S
Cosmos 2219 3.8 19:27:36 10° SW 19:33:15 58° WNW 19:38:56 10° NNE
Helios 1B rocket 2.4 19:30:39 10° NNE 19:34:46 58° E 19:38:51 10° S
Atlas Centaur 2 4.3 19:31:26 10° SSW 19:34:57 14° SSE 19:35:47 14° SSE
Helios 1A 2.8 19:33:28 36° SSE 19:35:04 72° ENE 19:39:13 10° N
Cosmos 2227 Rocket 2.3 19:29:43 10° S 19:35:07 49° ESE 19:38:28 22° NE
Cosmos 1486 Rocket 4.3 19:30:33 10° S 19:35:32 43° ESE 19:36:14 41° E
Abrixas rocket 2.5 19:33:43 10° WSW 19:37:03 59° NNW 19:37:11 58° N
Cosmos 1441 Rocket 4.3 19:35:52 10° N 19:38:20 32° NNE 19:38:20 32° NNE
SAR-Lupe-1 4.0 19:44:47 78° SW 19:44:56 80° WSW 19:48:32 10° NNW
SAR-Lupe-4 3.8 19:44:54 45° SSW 19:45:47 66° WSW 19:49:22 10° NNW
Cosmos 841 Rocket 3.7 19:41:37 10° N 19:46:24 46° ENE 19:46:24 46° ENE
Cosmos 1455 Rocket 2.9 19:42:44 10° S 19:47:05 74° E 19:51:27 10° NNE
SL-16 R/B 2.9 19:42:26 10° N 19:47:22 35° NE 19:47:22 35° NE
Cosmos 962 Rocket 4.4 19:45:54 10° S 19:51:58 62° E 19:58:01 10° NNE
Meteor 2-8 Rocket 4.4 19:47:46 10° N 19:53:45 57° ENE 19:54:42 52° ESE
Cosmos 1437 4.3 19:50:50 10° NNW 19:52:44 31° NNW 19:52:44 31° NNW
Cosmos 1763 Rocket 3.3 19:52:08 10° NNW 19:57:17 70° ENE 19:57:29 69° E
Resurs 01 Rocket 3.3 19:55:58 10° SSW 19:59:55 32° W 20:03:54 10° NNW
Cosmos 2333 Rocket 2.8 20:04:29 10° NNW 20:10:06 55° WSW 20:12:59 28° S
GEOS 3 Rocket 3.9 20:08:20 31° NNE 20:10:54 68° NW 20:16:08 10° SW
Cosmos 1980 3.9 20:05:33 10° NNW 20:11:10 67° WSW 20:12:50 45° S
Cosmos 1295 Rocket 4.5 20:33:35 64° SSW 20:34:34 80° W 20:40:55 10° N
Cosmos 2082 4.1 20:31:45 10° SW 20:37:25 62° WNW 20:37:59 59° NW
ERS-1 Rocket 4.4 20:45:10 33° NNW 20:45:10 33° NNW 20:47:53 10° NNW
NOSS 3-1 (A) 4.1 20:35:19 10° NW 20:42:58 76° WSW 20:44:06 66° S
Envisat 4.0 20:47:01 43° W 20:47:01 43° W 20:51:20 10° NNW
ATLAS 2AS CENTAUR R/B 3.6 20:41:06 10° NNW 20:48:06 45° NNE 20:48:06 45° NNE
Cosmos 2237 Rocket 3.6 20:50:47 10° NW 20:55:45 31° WSW 20:56:29 30° WSW
Cosmos 2297 Rocket 3.5 20:53:08 10° SW 20:56:25 33° WSW 20:56:25 33° WSW
Cosmos 2227 Rocket 4.0 21:14:37 10° WSW 21:19:25 28° NW 21:20:37 26° NNW
SL-16 R/B 4.1 21:26:33 10° NW 21:29:17 25° WNW 21:29:17 25° WNW
